Flag for U.S.A. Weather past 2 weeks in Port St. Lucie, Florida, U.S.A.

Now
75 °F

Clear.


Feels Like: 75 °F
Forecast: 73 / 90 °F
Wind: 3 mph from North

Location: Witham Field Airport

Current Time: Jul 3, 2015 at 4:03:59 AM

Latest Report: Jul 3, 2015 at 3:35 AM


Visibility: 10 mi

Pressure: 30.08 "Hg

Humidity: 89%

Dew point: 72 °F

Location of Port St. LucieLocation

Historic Weather in Port St. Lucie — Graph

°F

Port St. Lucie temperature yesterday

Maximum temperature yesterday: 88 °F (at 1:51 PM)
Minimum temperature yesterday: 73 °F (at 4:55 AM)
Average temperature yesterday: 79 °F

Past Weeks' High & Low Weather Summary

 TemperatureHumidityPressure
High102 °F (Jun 25, 6:47 PM)100% (Jun 24, 5:15 AM)30.24 "Hg (Jun 24, 5:15 AM)
Low70 °F (Jun 30, 10:55 PM)37% (Jun 25, 6:47 PM)30.02 "Hg (Jun 27, 5:47 PM)
Average79 °F79%30.11 "Hg
* Reported Jun 18 2:15 AM — Jul 3 2:55 AM, Port St. Lucie, Weather by CustomWeather, © 2015

Note: Actual official high and low records may vary slightly from our data, if they occured in-between our weather recording intervals... More about our weather records

Advertising

Port St. Lucie weather history for previous 24 hours

 ConditionsComfort  
Time TempWeatherWind HumidityBarometerVisibility
2:55 AM
Fri, Jul 3
75 °FClear.3 mph89%30.09 "Hg10 mi
2:35 AM75 °FClear.No wind89%30.10 "Hg10 mi
1:55 AM77 °FClear.5 mph83%30.10 "Hg10 mi
1:35 AM77 °FClear.6 mph83%30.11 "Hg10 mi
1:15 AM77 °FPassing clouds.No wind83%30.12 "Hg10 mi
12:55 AM77 °FClear.3 mph83%30.12 "Hg10 mi
12:35 AM77 °FClear.3 mph83%30.12 "Hg10 mi
11:55 PM
Thu, Jul 2
77 °FClear.No wind89%30.13 "Hg10 mi
11:35 PM77 °FClear.5 mph83%30.13 "Hg10 mi
10:55 PM77 °FClear.8 mph83%30.12 "Hg10 mi
10:35 PM77 °FClear.No wind83%30.13 "Hg7 mi
10:15 PM77 °FClear.No wind83%30.13 "Hg10 mi
9:55 PM79 °FPassing clouds.5 mph74%30.14 "Hg10 mi
9:35 PM79 °FPartly cloudy.9 mph74%30.15 "Hg10 mi
9:15 PM79 °FSunny.No wind79%30.12 "Hg10 mi
8:55 PM81 °FSunny.No wind74%30.12 "Hg10 mi
8:35 PM81 °FSunny.3 mph74%30.12 "Hg10 mi
8:15 PM81 °FThundershowers. Sunny.No wind74%30.12 "Hg10 mi
7:55 PM82 °FSunny.5 mph70%30.10 "Hg10 mi
7:35 PM82 °FSunny.7 mph66%30.10 "Hg10 mi
7:15 PM84 °FSunny.8 mph66%30.09 "Hg10 mi
5:47 PM86 °FPassing clouds.12 mph55%30.08 "Hg7 mi
4:47 PM84 °FPassing clouds.12 mph70%30.09 "Hg7 mi
3:47 PM84 °FPassing clouds.12 mph70%30.09 "Hg7 mi
2:47 PM86 °FThundershowers. Passing clouds.12 mph66%30.11 "Hg7 mi
1:51 PM88 °FScattered clouds.9 mph55%30.15 "Hg7 mi
12:50 PM86 °FSunny.8 mph59%30.15 "Hg7 mi
11:47 AM84 °FBroken clouds.5 mph58%30.15 "Hg7 mi
10:47 AM86 °FScattered showers. Broken clouds.10 mph66%30.15 "Hg5 mi
9:47 AM84 °FBroken clouds.7 mph70%30.15 "Hg5 mi
8:47 AM81 °FScattered clouds.No wind84%30.14 "Hg4 mi
7:47 AM77 °FScattered clouds.No wind94%30.13 "Hg4 mi
6:50 AM75 °FPassing clouds.No wind94%30.11 "Hg5 mi
6:15 AM75 °FClear.No wind94%30.10 "Hg7 mi
5:55 AM73 °FClear.No wind94%30.10 "Hg7 mi
5:35 AM75 °FClear.No wind94%30.10 "Hg7 mi
5:15 AM73 °FFog.No wind100%30.10 "Hg5 mi
4:55 AM73 °FClear.No wind94%30.10 "Hg7 mi
4:35 AM75 °FClear.No wind94%30.09 "Hg7 mi
4:15 AM75 °FClear.No wind94%30.09 "Hg7 mi
Weather by CustomWeather, © 2015

See weather overviewHow to use our weather pages